GFSSW_850_thetae_057.txt.gz
Theta_e
309 309 309 309 309 309 309 309 309 310 310 310 311 312 312 313 313 314 316 315 314 313 312 312 313 315 317 318 315 316 311 312 315 317 317 317 316 317 317 317 316 315 316 315 315
310 310 310 310 309 309 309 309 309 310 310 311 311 312 312 313 314 316 316 315 314 313 312 315 315 316 317 318 318 316 312 315 314 315 316 317 317 317 316 316 314 313 313 313 314
311 310 310 310 310 309 309 309 309 309 310 311 311 312 313 313 318 318 313 312 312 312 312 315 314 316 317 317 318 317 313 314 315 317 318 317 317 317 317 314 314 315 313 313 313
311 310 310 310 310 310 310 309 309 309 310 310 311 312 312 314 319 317 312 311 311 312 312 315 317 317 317 317 318 315 316 315 317 316 317 317 317 316 316 315 315 315 314 313 312
310 310 310 310 310 310 310 310 309 309 309 310 311 312 313 316 318 319 318 313 311 312 313 315 316 317 317 316 317 316 316 317 317 316 316 317 316 316 315 314 314 313 312 312 312
310 310 310 310 310 310 310 310 310 309 309 310 311 311 313 317 316 318 318 317 313 311 312 313 316 317 316 316 316 316 316 317 317 317 317 316 315 316 314 314 313 312 311 311 311
308 309 309 309 309 309 310 310 310 309 309 309 310 311 313 313 316 318 317 317 317 314 313 313 315 316 316 316 316 316 315 314 315 316 315 316 313 313 315 313 313 311 311 310 310
309 308 309 309 309 310 310 310 310 309 308 309 310 312 312 314 316 318 318 317 317 315 314 316 314 316 317 316 316 315 315 316 316 314 315 315 315 315 314 313 312 311 310 310 310
319 316 312 308 308 310 310 310 309 308 308 309 311 313 313 315 317 317 318 317 316 316 315 315 314 315 315 312 313 314 315 315 316 314 312 312 313 311 311 312 311 311 310 310 310
324 323 319 316 312 307 307 308 308 308 308 310 311 314 313 315 317 317 316 316 316 315 314 313 314 312 311 311 314 316 316 316 317 314 312 311 311 310 311 311 311 311 311 310 310
323 324 324 322 317 315 308 307 311 315 311 310 313 314 317 314 315 315 316 315 315 314 312 314 311 312 312 311 313 315 316 316 314 314 313 312 312 310 311 310 310 311 311 311 310
319 321 323 323 323 318 314 308 315 316 315 314 315 315 317 317 314 314 315 315 314 313 313 313 313 313 313 313 314 314 314 314 314 313 312 312 312 311 311 311 311 311 311 311 309
318 319 320 323 322 320 319 313 313 316 316 315 312 312 315 315 316 314 315 314 313 313 313 314 315 315 315 315 316 314 315 314 315 314 312 312 312 312 311 312 312 311 311 311 310
320 318 320 322 318 318 321 319 313 314 313 314 316 317 316 316 314 316 315 315 313 314 314 314 314 315 314 315 314 315 314 315 315 315 314 312 316 314 312 310 309 310 311 311 309
320 321 321 319 320 319 321 320 315 315 321 315 317 317 316 316 314 313 314 314 312 313 314 315 314 314 315 314 313 314 314 314 314 313 314 313 313 314 313 314 310 310 310 311 309
319 319 320 320 320 320 320 318 316 319 320 317 314 314 314 316 312 311 312 312 312 313 312 312 313 312 313 311 313 311 313 312 312 313 315 313 314 316 315 316 314 311 309 308 307
314 317 318 318 319 319 318 316 316 318 318 317 316 314 315 315 311 310 310 311 313 314 314 313 312 313 312 312 312 313 314 317 317 315 317 313 314 317 314 312 311 309 308 307 306
308 310 315 318 318 319 317 313 315 315 318 315 316 315 316 315 313 310 310 311 309 312 313 315 315 312 310 312 313 312 313 315 316 318 317 311 314 315 312 311 312 313 312 308 306
307 307 308 312 318 318 317 315 316 317 315 317 316 317 317 316 313 312 309 310 311 310 315 315 315 312 310 312 313 311 314 314 318 302 309 315 313 312 309 307 307 308 306 304 303
305 306 309 308 309 317 318 317 313 315 317 316 319 317 318 316 316 312 311 311 313 311 312 316 319 310 309 312 311 312 311 314 313 314 316 316 315 318 312 310 306 304 304 303 302
302 308 308 309 309 313 318 317 316 315 315 319 319 318 316 317 316 313 314 314 312 311 312 314 318 312 310 311 313 312 313 314 314 313 315 315 319 312 314 311 307 304 304 303 302
304 308 309 311 313 312 313 313 314 314 315 317 318 318 317 317 317 314 314 315 314 313 313 313 316 309 311 309 309 313 314 313 318 316 312 314 320 308 309 310 308 306 305 304 304
304 306 309 311 312 312 312 314 313 316 315 316 318 317 317 319 321 318 315 315 315 312 313 314 316 314 313 311 309 311 312 315 315 310 315 320 320 305 306 308 307 306 305 304 303
304 305 307 311 311 310 311 312 313 314 315 315 317 317 317 318 317 320 317 314 312 314 315 315 315 316 321 318 312 310 310 311 314 317 317 319 319 314 308 309 306 306 306 305 303
303 303 308 309 309 311 310 312 313 313 315 315 316 316 318 319 319 319 319 314 312 311 314 316 317 316 316 315 313 310 310 312 313 315 317 318 317 317 314 306 307 309 306 304 303
302 303 305 307 310 309 311 312 312 313 314 315 315 316 316 318 318 317 317 317 316 311 312 313 317 313 317 313 313 316 315 311 311 313 314 315 315 312 314 314 310 309 307 304 304
300 301 303 304 305 309 310 311 311 311 311 313 314 315 315 316 316 315 314 316 315 315 313 312 311 313 318 312 314 316 315 316 317 314 312 314 314 311 311 310 308 308 307 306 305

GFSSW_850_thetae_060.txt.gz
Theta_e
309 309 309 309 309 309 309 309 309 309 310 310 311 311 312 312 313 313 315 315 314 312 312 312 313 315 316 315 314 316 308 311 314 314 316 316 315 317 316 316 315 316 316 316 320
309 309 309 309 309 309 309 309 309 309 310 310 311 311 312 313 314 315 316 315 314 313 312 314 314 316 317 317 316 314 309 314 313 314 314 315 316 316 316 314 313 314 315 316 319
310 310 310 310 310 310 310 309 309 309 309 310 311 311 312 313 318 317 312 312 312 312 313 315 314 316 317 317 317 314 311 312 315 317 316 316 316 316 314 313 314 314 315 314 317
310 310 310 310 310 310 310 310 309 309 309 310 310 311 312 313 318 315 311 311 311 312 313 315 317 317 315 316 317 313 315 314 316 316 317 316 316 316 315 315 316 315 314 313 314
310 310 310 310 310 310 310 310 310 309 309 309 310 311 312 314 316 318 317 312 311 312 314 316 317 317 315 315 316 314 315 316 316 316 316 316 316 315 315 315 316 315 314 313 313
310 310 310 310 310 310 310 310 310 309 309 309 309 310 311 313 315 318 318 317 311 312 313 314 316 316 316 315 314 316 315 316 316 316 315 315 315 315 315 314 314 314 314 313 312
308 308 309 309 309 309 309 309 310 310 309 309 309 310 311 311 315 317 317 317 316 312 312 312 315 316 316 315 315 315 315 313 314 315 315 315 313 312 315 314 313 312 312 312 312
314 309 309 308 308 308 309 310 310 310 309 308 309 310 310 312 314 314 316 316 316 316 314 315 314 316 316 316 314 314 313 315 314 313 314 314 314 313 314 313 312 312 311 311 311
324 319 315 310 308 309 310 310 310 309 308 308 309 310 311 312 314 315 317 317 316 315 314 315 314 315 315 311 312 311 314 313 314 312 312 312 313 313 312 312 311 311 311 311 310
321 323 323 317 315 311 308 307 308 308 308 308 310 312 311 314 315 316 317 316 315 315 314 314 314 311 309 311 314 313 314 313 315 313 311 311 311 310 311 310 311 312 311 311 310
318 323 324 323 322 317 315 309 309 312 309 309 311 310 314 313 315 316 316 315 315 314 312 313 311 312 313 310 312 312 313 315 313 313 312 311 311 311 311 309 309 310 311 311 311
318 320 322 322 322 322 318 311 311 315 314 313 310 312 316 315 315 316 316 315 314 313 312 312 312 312 311 311 312 313 314 313 312 312 310 311 311 309 309 309 310 312 311 312 311
318 317 318 320 321 322 322 318 313 315 314 313 313 313 312 315 315 315 316 314 313 312 312 313 314 313 313 313 313 312 313 313 314 313 311 311 311 310 310 311 312 313 314 313 312
320 318 318 319 320 319 321 321 314 312 312 313 315 314 314 315 315 315 315 315 312 313 312 312 313 314 313 313 313 314 312 314 314 315 315 311 316 312 311 309 308 311 312 312 311
319 319 319 318 319 319 320 321 316 315 324 315 315 315 314 314 312 313 314 314 311 312 313 313 313 314 314 314 313 314 312 313 313 312 312 312 312 314 311 311 311 312 312 311 312
315 318 319 320 319 317 317 319 316 319 323 317 315 314 314 315 311 310 313 312 312 312 312 312 312 312 313 312 312 310 312 311 310 311 314 313 313 314 312 313 312 313 315 314 312
309 313 317 317 318 319 319 318 317 318 317 316 315 313 315 315 311 310 310 311 313 314 314 312 312 312 311 312 311 312 313 315 315 313 316 311 312 316 313 313 311 312 315 314 312
307 308 310 317 318 319 318 312 315 316 316 314 314 314 316 314 312 310 309 311 309 311 311 314 314 311 310 312 313 312 312 314 314 316 315 311 314 315 310 312 314 315 313 311 309
306 306 307 308 316 318 318 316 318 315 315 317 317 317 315 315 313 310 309 310 310 309 314 313 313 310 310 310 313 311 313 313 316 300 309 314 313 312 309 308 309 312 308 308 308
304 304 306 307 308 316 318 317 313 313 315 316 320 318 317 316 314 312 310 310 312 310 311 313 315 310 310 311 311 311 310 313 311 313 315 315 314 317 314 310 309 306 306 307 306
302 303 304 305 308 311 316 312 316 314 315 317 319 318 315 317 316 313 314 313 311 311 311 313 315 312 310 311 312 311 312 312 312 310 313 313 318 310 313 311 310 307 310 307 307
302 304 305 308 311 310 312 312 313 315 314 316 317 317 315 315 317 313 314 314 312 311 312 311 315 310 311 309 308 311 313 312 315 314 313 313 319 308 310 310 311 311 311 309 307
301 302 307 310 310 310 309 311 313 315 315 316 317 316 316 318 319 316 313 313 313 312 312 313 316 315 315 314 309 311 311 314 313 308 316 315 319 305 307 310 310 310 309 307 306
301 302 304 310 310 308 310 310 312 313 313 315 316 316 316 318 318 321 318 316 313 313 313 314 314 315 320 317 312 311 310 311 314 316 316 316 318 313 309 310 309 309 309 308 307
301 302 305 305 306 310 309 310 310 312 313 313 315 316 317 319 318 319 318 315 311 312 313 316 318 315 315 312 311 310 313 312 314 315 318 318 316 317 314 310 312 314 310 307 306
300 300 302 305 307 305 310 310 310 310 312 314 314 314 316 318 317 315 317 317 317 311 313 313 317 314 316 313 313 315 313 309 312 314 315 316 316 313 314 315 312 313 313 309 309
299 300 302 301 302 306 307 307 308 309 310 311 313 314 314 315 315 315 313 313 314 316 313 313 314 313 319 315 314 316 316 316 315 311 312 314 314 313 310 309 311 313 312 311 313

GFSSW_850_thetae_063.txt.gz
Theta_e
308 308 308 308 308 309 309 309 309 309 309 310 310 311 311 312 312 313 314 314 313 312 312 312 312 314 314 314 314 315 307 309 311 312 315 315 314 315 315 315 315 316 316 317 322
308 308 309 309 309 309 309 309 309 309 309 310 310 311 312 312 313 314 315 314 314 312 312 313 314 316 316 316 315 312 307 311 311 311 313 314 315 316 315 314 313 315 316 317 321
309 309 309 309 309 309 309 309 309 309 309 310 310 311 312 312 317 316 312 313 313 312 312 314 315 315 316 316 315 311 310 311 314 315 315 315 315 315 313 312 314 315 316 318 320
310 310 310 310 310 310 310 310 309 309 309 309 310 311 311 313 315 313 311 311 311 312 313 314 316 317 314 315 316 313 313 312 314 315 315 314 315 315 314 315 316 315 316 317 317
310 310 310 310 310 310 310 310 310 309 309 309 309 310 311 313 315 317 315 311 311 312 314 316 316 316 314 315 315 313 314 315 315 315 315 316 315 314 315 316 316 315 314 315 316
310 310 310 310 310 310 309 309 310 310 309 309 309 309 311 312 314 317 317 313 311 313 314 315 316 316 315 314 313 315 315 315 315 315 315 314 314 315 315 315 315 315 315 314 314
308 308 309 309 309 309 309 309 309 310 310 309 309 309 310 310 313 316 317 316 312 311 311 312 315 316 315 314 315 314 314 311 313 314 314 315 312 311 315 315 314 314 314 314 313
317 312 308 308 308 308 308 309 309 310 309 309 309 309 310 311 311 316 316 316 316 315 313 313 314 316 316 315 313 313 311 314 312 312 314 314 313 313 314 313 313 313 313 313 313
323 323 319 313 309 308 309 309 310 310 310 309 309 309 310 311 312 314 314 316 316 315 314 315 315 315 314 310 311 310 312 312 313 311 311 311 313 312 312 312 313 313 313 313 313
322 322 323 322 318 314 310 307 308 308 308 308 308 311 311 312 313 313 315 316 315 314 314 314 314 310 307 310 312 312 313 312 313 313 310 311 310 309 312 310 311 312 312 312 313
321 317 322 323 323 321 316 312 308 309 307 309 310 308 312 312 314 316 316 315 315 314 312 312 310 311 312 309 311 311 312 313 312 312 312 311 310 311 311 310 309 311 312 312 313
316 318 319 323 322 322 322 314 310 314 313 311 308 311 313 313 315 316 316 315 314 312 310 310 311 311 311 310 311 312 313 312 311 310 310 310 310 309 309 309 311 313 313 313 313
317 317 317 318 322 321 322 321 314 314 312 314 314 311 311 314 314 315 315 314 312 311 310 312 313 311 311 311 312 311 311 311 313 312 309 310 311 309 309 310 311 312 314 314 314
319 317 318 317 319 321 321 322 320 313 313 314 313 315 313 313 313 314 315 315 311 312 310 311 311 312 311 312 311 312 310 311 312 314 314 311 315 311 310 309 307 311 312 315 314
317 319 319 319 318 318 320 320 319 315 326 315 313 314 314 313 312 313 315 314 311 311 312 312 312 312 313 312 311 313 311 311 312 312 311 311 311 313 310 310 310 311 314 315 315
310 315 318 319 319 318 319 318 316 319 324 315 314 313 312 313 311 310 313 312 312 311 312 310 311 311 312 311 311 309 311 310 309 310 313 312 313 313 311 313 311 312 315 316 316
307 309 313 317 318 319 318 317 318 316 317 316 315 312 314 312 310 310 310 311 312 313 313 311 311 310 311 312 310 312 313 315 313 312 316 310 311 315 312 311 310 311 317 316 314
306 307 308 312 317 318 318 316 316 316 317 314 314 313 315 313 311 309 309 312 309 311 310 312 312 310 308 313 313 311 312 314 313 313 312 311 314 314 309 311 312 314 315 313 313
305 305 306 307 310 317 318 316 318 314 314 316 316 317 315 314 312 310 308 309 310 308 313 312 313 310 309 310 312 311 313 312 314 298 308 312 311 311 309 308 309 312 310 309 312
304 304 304 306 307 309 316 317 314 313 314 316 320 317 317 316 314 310 309 309 310 309 310 312 313 310 310 311 310 310 309 313 310 311 310 313 313 315 314 311 309 308 309 313 313
302 302 303 304 306 308 312 314 314 313 313 316 318 318 316 317 316 312 314 312 309 309 311 311 312 311 310 310 311 311 311 311 311 310 312 312 317 309 312 311 311 309 314 314 312
301 302 303 305 308 309 309 311 312 314 315 314 316 316 315 314 316 316 314 316 312 310 311 310 312 309 311 309 308 310 312 311 313 312 311 312 318 309 311 310 310 312 312 312 311
300 300 301 308 307 307 307 309 310 314 314 315 316 316 315 316 318 315 313 311 311 311 312 313 315 315 315 313 308 310 311 312 312 309 316 314 318 305 308 309 311 309 311 312 313
300 301 301 302 308 306 307 307 309 311 312 315 316 316 317 318 316 318 314 314 312 311 313 314 314 314 320 317 312 311 310 310 313 315 315 316 317 314 310 309 309 311 313 312 314
299 301 301 300 302 308 308 307 308 308 311 312 314 316 316 318 318 319 318 317 311 312 313 315 315 314 314 313 311 311 311 312 313 314 317 317 316 316 314 307 310 315 315 311 311
298 299 300 301 304 301 307 309 308 308 310 312 313 312 314 317 317 317 317 317 318 310 313 314 313 313 316 314 313 314 311 310 312 314 314 315 316 315 314 315 312 315 316 313 312
299 298 299 300 299 302 304 303 309 308 309 309 310 311 312 313 314 314 315 315 315 315 312 314 314 316 320 314 314 315 314 315 311 312 313 315 314 314 312 308 312 314 313 312 313

GFSSW_850_thetae_069.txt.gz
Theta_e
307 307 307 307 308 308 308 308 308 309 309 309 309 310 310 311 311 312 312 313 312 311 311 311 312 314 313 314 315 313 310 311 312 310 313 311 312 312 313 314 316 317 316 317 319
307 307 307 307 308 308 308 308 308 308 309 309 309 310 310 311 312 312 313 313 313 312 311 311 312 314 314 314 313 309 308 310 308 308 312 312 313 312 313 313 315 316 316 316 319
307 307 308 308 308 308 308 308 308 308 309 309 309 310 310 311 312 314 314 314 314 313 312 312 313 314 314 314 313 308 308 308 311 312 313 312 312 313 312 311 315 316 316 316 317
308 308 308 308 308 308 309 309 309 308 308 309 309 309 310 311 311 313 312 311 313 313 312 313 314 315 313 312 313 312 310 310 312 314 314 312 313 312 312 315 315 315 315 315 316
308 309 309 309 309 309 309 309 309 309 309 309 309 309 310 311 312 313 310 310 311 312 312 313 314 315 311 313 313 312 312 312 313 314 314 314 313 312 313 315 315 315 315 315 315
309 309 309 309 309 309 309 309 309 309 309 309 309 309 309 310 311 316 315 311 311 312 313 315 315 315 313 312 311 313 313 313 314 314 313 313 312 313 315 316 315 315 315 315 315
309 310 310 310 310 309 309 309 309 309 309 309 309 309 309 309 310 315 316 313 311 313 314 314 315 315 314 312 313 313 313 311 312 313 313 313 312 311 314 315 315 315 316 315 315
310 309 308 308 309 309 309 309 309 309 309 309 309 309 309 310 310 312 316 315 312 312 312 312 314 315 314 313 312 311 309 312 310 311 312 313 313 311 313 313 314 314 315 315 315
321 319 315 312 309 308 308 308 308 308 308 309 309 309 309 309 310 311 315 315 314 312 312 313 313 314 313 310 310 308 310 311 311 310 311 311 312 311 313 313 313 314 314 314 314
320 321 320 320 319 315 312 309 308 308 309 309 309 309 310 310 311 311 315 315 314 314 314 314 314 308 306 309 309 310 312 310 311 310 310 311 310 309 313 312 313 315 315 315 315
320 318 321 321 322 322 320 315 311 308 307 308 309 307 310 310 312 312 313 314 314 313 311 311 310 311 310 308 308 307 309 310 308 309 311 310 309 311 311 310 311 313 315 316 316
317 316 317 318 320 321 322 317 310 312 312 310 308 309 309 311 313 314 314 314 313 310 309 309 310 309 308 308 310 309 310 310 308 308 309 310 310 309 309 310 313 314 314 316 316
316 316 316 317 317 319 321 322 317 314 313 315 313 310 308 309 312 314 314 313 310 308 308 309 310 308 309 309 310 309 310 309 311 310 307 308 309 309 308 309 311 313 315 316 316
317 316 316 316 318 317 318 321 321 317 316 316 313 315 312 309 311 312 314 314 310 310 307 309 309 310 310 310 310 310 308 309 311 312 311 308 311 310 309 310 308 312 314 315 316
315 316 317 316 317 317 317 319 321 317 320 315 312 313 311 310 310 312 313 313 309 310 310 311 309 310 310 310 309 310 308 309 310 310 309 310 312 311 309 310 310 311 314 315 315
308 313 315 318 317 317 317 318 317 320 323 315 312 312 310 311 310 311 312 312 311 310 310 309 310 309 310 309 309 307 309 308 306 308 313 309 311 311 309 310 310 310 314 314 313
306 307 308 315 316 317 318 318 318 320 316 314 313 310 311 310 310 310 310 309 310 312 311 310 310 309 310 310 309 310 311 311 310 311 314 308 310 311 309 307 309 310 315 313 314
305 306 306 308 312 316 316 317 317 315 316 312 312 310 312 310 309 309 310 311 310 308 307 310 310 309 308 310 311 309 310 311 308 309 309 308 312 311 308 309 311 311 312 312 312
300 304 305 305 306 309 313 314 316 314 313 315 315 316 313 313 309 309 308 309 310 307 310 309 309 308 307 309 310 309 312 309 311 296 307 309 308 308 307 307 308 311 310 311 313
297 298 299 302 304 306 308 311 313 312 313 314 319 318 319 313 312 309 308 307 309 308 308 310 311 308 308 309 309 309 308 311 308 310 308 311 310 312 313 311 309 308 310 313 314
300 300 301 303 303 306 307 308 311 312 313 316 317 317 314 315 314 309 311 309 307 307 309 308 309 309 308 309 309 310 310 309 309 308 310 310 316 307 310 309 309 309 312 313 315
300 297 302 303 305 304 305 306 311 312 313 314 315 317 317 314 315 312 311 312 310 308 310 309 309 309 309 307 306 307 310 309 312 310 308 310 316 308 310 308 309 310 312 312 314
298 298 300 306 303 302 303 305 307 309 312 314 315 313 315 316 317 314 312 311 311 309 310 311 312 310 313 311 307 308 308 309 308 307 310 312 316 305 307 309 310 311 312 312 314
298 298 298 300 302 302 302 304 306 307 308 311 312 313 315 315 314 316 315 312 311 310 312 314 312 313 317 315 309 309 308 309 312 314 313 313 315 312 310 310 309 312 313 314 313
299 299 298 298 298 298 302 304 304 305 306 308 307 309 311 313 313 315 314 314 313 310 312 315 316 313 313 312 310 309 310 309 311 312 314 315 313 313 311 310 313 314 314 313 314
299 298 298 297 300 297 298 301 303 305 304 306 307 306 308 310 310 308 312 313 314 311 311 312 315 314 317 315 311 314 312 309 310 311 312 312 313 313 313 313 312 314 314 314 314
297 298 298 298 297 299 299 299 300 299 301 305 305 306 307 307 308 309 310 311 311 313 312 310 309 313 318 311 313 315 315 314 314 310 311 312 313 313 312 311 312 313 312 313 314

GFSSW_850_thetae_072.txt.gz
Theta_e
308 308 308 307 307 308 308 308 308 308 309 309 309 310 310 310 311 311 312 312 313 311 312 311 312 313 313 315 316 314 320 320 320 318 319 314 316 313 314 315 316 317 317 317 319
308 308 308 307 307 308 308 308 308 308 308 309 309 309 310 311 311 312 312 313 312 312 311 311 312 313 314 314 314 317 320 319 317 317 318 315 316 315 315 316 316 316 317 316 319
307 307 307 307 307 308 308 308 308 308 308 308 309 309 310 310 312 313 312 313 313 313 311 311 312 314 315 314 314 313 318 313 314 313 314 315 314 314 316 317 317 318 317 316 318
307 307 307 308 308 308 308 308 308 308 308 308 309 309 309 310 313 314 314 313 313 313 312 312 313 315 316 316 314 315 312 312 314 314 314 315 314 315 315 318 316 316 316 316 316
308 308 308 308 309 309 309 309 309 309 309 309 309 309 309 310 312 313 310 310 311 312 312 313 314 315 316 316 314 315 314 312 313 313 313 313 315 315 314 315 315 315 315 315 315
308 308 309 309 309 309 309 309 309 309 309 309 309 309 309 311 310 314 312 310 311 311 312 313 314 314 315 315 315 314 314 314 314 314 314 315 315 314 316 316 315 315 315 315 315
310 309 309 309 310 309 309 309 309 309 309 309 309 309 309 310 310 312 315 311 311 312 313 314 315 315 314 315 313 313 316 316 315 315 316 314 317 316 316 315 315 315 315 315 315
310 309 309 310 310 310 309 309 309 309 309 309 309 309 310 310 310 311 316 314 312 313 313 314 314 314 315 313 314 316 316 317 315 313 314 315 318 317 314 314 315 315 315 315 315
318 316 312 309 308 308 308 309 308 308 308 308 309 309 310 309 310 310 314 315 312 311 311 312 314 314 314 317 317 317 317 317 316 313 314 316 318 317 313 313 315 316 315 314 315
320 321 320 317 313 310 309 308 308 308 308 308 309 309 309 309 310 311 314 314 313 313 313 314 314 317 316 317 316 316 316 315 316 314 313 316 317 317 315 313 315 316 316 315 316
318 319 320 319 319 320 317 314 310 308 307 308 308 308 309 310 311 312 314 313 314 313 316 312 317 317 317 317 313 313 315 315 315 312 315 316 316 316 316 315 315 315 316 315 316
317 319 317 319 320 320 321 318 312 310 312 308 308 309 309 310 312 313 314 314 314 316 312 314 315 316 313 313 314 314 315 315 315 312 313 316 316 316 316 315 315 316 316 316 316
315 315 317 317 318 319 320 322 317 314 315 315 312 308 308 309 311 313 313 313 313 313 314 314 314 313 313 312 314 315 315 315 315 313 312 313 315 316 316 313 314 314 314 315 315
316 316 316 317 317 318 320 320 321 319 322 320 314 314 311 309 311 311 313 313 312 314 313 314 313 312 312 313 313 314 313 314 314 315 315 313 314 315 316 315 315 315 315 315 315
315 315 316 315 316 317 317 318 321 318 321 317 313 313 311 310 310 312 312 313 314 313 313 314 312 312 313 313 313 315 312 313 313 315 315 315 315 315 313 315 316 316 316 316 315
307 312 314 316 316 317 316 318 319 320 321 317 313 313 311 310 310 311 311 312 311 312 311 312 309 312 313 310 312 310 313 312 312 315 317 315 315 315 316 316 316 315 315 314 314
306 307 310 314 314 317 317 317 315 320 317 317 316 312 312 312 311 312 313 313 314 314 314 312 313 311 310 313 311 313 315 315 317 318 317 313 315 316 316 314 316 317 317 313 313
304 306 306 307 313 314 316 317 318 317 318 313 313 312 315 312 311 311 313 314 312 311 312 314 313 313 312 314 315 314 315 318 323 316 315 311 315 316 315 314 313 313 313 312 312
298 301 304 305 306 308 312 314 318 316 315 316 315 317 316 313 312 312 313 314 314 311 312 312 313 309 309 311 313 313 314 314 315 307 315 314 315 316 314 314 313 313 313 312 314
298 297 296 302 304 306 311 313 312 312 315 315 320 318 318 316 314 313 313 313 313 312 312 313 314 310 309 310 310 312 313 315 314 321 319 315 315 316 317 316 315 314 312 313 313
299 298 298 299 302 306 310 310 312 313 314 316 317 319 319 317 316 313 315 312 311 311 312 313 313 312 310 312 314 312 313 313 314 316 322 319 317 317 318 316 315 315 313 313 313
299 301 299 303 305 306 308 307 310 311 313 315 315 314 315 316 316 316 318 317 310 310 312 312 314 317 314 310 308 312 314 314 315 316 314 315 318 312 314 313 312 312 312 313 314
299 298 300 304 304 305 305 306 308 312 312 314 315 314 315 315 316 314 314 312 310 311 312 312 315 319 318 313 309 311 311 313 314 314 320 321 320 310 310 313 312 313 313 312 313
298 300 298 303 302 303 303 305 306 306 308 311 312 314 314 315 313 314 313 313 311 310 311 312 314 318 322 318 315 313 313 312 314 317 317 318 317 318 314 314 313 313 313 314 314
299 299 299 300 300 302 303 304 304 304 307 307 308 309 311 311 312 313 313 314 313 314 311 310 312 314 316 317 313 313 315 313 314 315 317 318 317 317 316 315 315 315 314 313 313
298 299 297 299 299 300 301 302 304 304 305 307 307 307 308 309 310 310 311 312 313 312 313 310 312 310 312 314 314 315 315 313 314 314 315 315 316 316 315 314 312 314 314 314 314
297 298 298 299 300 300 299 300 299 302 302 303 306 306 307 307 306 305 306 308 310 311 312 311 311 313 313 313 316 316 316 317 315 314 314 316 316 315 315 314 314 314 314 313 314

GFSSW_850_thetae_075.txt.gz
Theta_e
308 308 308 308 308 308 308 308 308 308 308 309 309 309 310 310 311 311 314 314 313 312 312 312 312 313 315 318 317 317 321 321 321 321 321 319 320 317 318 319 318 320 320 321 325
308 308 308 308 307 307 308 308 308 308 308 309 309 309 310 310 311 312 312 312 312 312 311 312 314 315 316 318 318 319 321 321 321 320 320 319 319 319 317 318 318 318 318 317 326
307 307 307 307 307 308 308 308 308 308 308 308 309 309 309 310 313 316 312 312 313 312 311 312 314 315 316 317 318 319 321 320 318 317 317 318 318 318 318 320 319 319 319 317 319
307 307 307 307 307 308 308 308 308 308 308 308 308 309 309 310 315 312 314 313 314 313 311 312 314 315 316 317 316 316 316 316 317 315 316 317 317 317 317 319 318 318 319 318 321
307 307 307 307 308 308 308 308 309 309 309 309 308 309 309 312 314 313 312 312 312 313 313 314 315 316 317 316 316 316 316 314 315 315 316 315 317 318 318 318 317 316 316 318 319
307 308 308 308 308 309 309 309 309 309 309 309 309 309 309 312 311 312 311 310 310 312 313 314 315 316 316 316 317 317 316 316 316 316 315 315 317 315 317 317 317 317 316 316 317
308 308 308 309 309 309 309 309 309 309 309 309 309 309 310 312 310 311 314 311 311 312 314 313 315 315 316 317 316 316 318 317 317 317 317 316 317 317 316 316 316 317 316 316 316
310 309 309 309 309 309 309 310 309 309 309 309 309 309 312 310 310 311 315 312 312 313 313 314 315 316 318 316 317 317 318 317 318 317 316 317 317 319 317 318 317 317 317 317 317
317 312 309 309 309 309 309 309 310 309 309 309 309 310 312 309 310 310 315 313 312 312 313 314 315 317 316 318 318 318 316 318 318 316 317 318 319 319 316 316 317 317 318 318 317
319 318 316 312 311 309 309 308 308 308 308 308 308 310 311 311 310 310 314 313 313 312 313 315 315 316 316 317 316 317 318 317 318 317 316 318 318 318 317 317 317 317 317 317 318
319 320 319 319 319 316 314 313 310 309 307 311 311 310 309 310 310 311 313 313 314 315 316 315 315 316 316 316 316 316 316 316 316 316 315 316 316 317 317 317 317 317 317 317 317
316 317 319 320 318 319 321 316 313 311 312 309 308 309 309 310 314 314 313 314 315 316 316 317 316 316 317 317 317 316 316 316 316 317 314 316 316 317 317 317 317 317 317 317 317
314 316 317 318 319 320 320 321 315 311 315 315 311 309 309 309 313 315 313 315 316 316 317 316 316 315 316 315 315 315 316 316 316 316 315 316 317 318 318 317 317 317 317 317 317
313 316 316 317 317 318 319 320 321 319 318 317 315 314 309 309 311 314 313 314 314 315 316 316 315 315 315 315 315 315 315 316 315 316 315 316 316 316 316 317 318 317 317 317 317
313 315 314 316 317 317 317 319 321 317 318 317 314 313 312 310 311 312 313 313 314 314 314 314 314 314 315 315 315 316 315 315 315 316 317 316 316 316 317 317 317 317 318 318 318
307 310 315 316 316 316 316 317 319 320 322 319 315 315 311 310 311 312 312 312 313 315 314 315 311 314 314 312 314 314 315 316 316 316 316 315 316 316 317 318 318 318 318 317 316
307 307 310 314 315 316 316 317 318 319 318 318 317 314 314 313 312 313 313 313 313 313 313 314 314 313 312 314 313 315 315 315 317 319 318 316 317 317 317 317 317 317 317 317 315
305 306 306 308 312 314 315 317 317 316 319 316 317 316 316 314 313 313 314 314 313 314 314 314 315 314 313 315 315 315 316 318 324 319 318 313 316 316 317 316 316 316 316 316 315
297 301 304 306 306 309 312 313 317 318 318 317 316 318 317 314 315 314 314 315 315 314 314 314 315 313 313 314 315 315 316 316 317 316 316 315 316 317 317 316 316 316 316 316 316
301 298 297 302 305 306 311 311 312 313 315 316 320 318 320 317 315 314 315 315 315 315 314 315 316 312 311 311 313 314 314 315 315 323 320 316 317 317 318 318 318 317 316 316 315
300 301 299 297 304 308 311 311 312 312 314 317 318 320 320 320 317 316 317 315 314 314 314 314 314 314 312 313 314 313 313 314 315 316 319 319 317 318 319 318 318 318 316 315 315
301 302 299 300 305 306 308 308 309 312 313 314 315 314 314 314 317 318 318 316 312 312 314 314 315 317 315 314 313 313 314 314 316 317 315 316 318 317 318 316 315 316 315 314 313
301 301 300 304 304 306 306 306 308 310 313 314 315 315 314 314 314 309 315 312 312 312 314 313 315 318 319 315 312 313 314 314 315 316 322 320 319 315 314 315 316 315 316 314 313
300 301 300 301 304 304 303 304 306 307 310 311 312 313 314 314 313 314 313 312 312 312 311 309 311 317 321 319 317 315 314 314 315 317 317 318 318 317 317 318 317 316 315 315 314
299 300 301 302 302 303 303 302 303 305 307 308 309 311 313 313 314 315 313 313 313 312 311 310 313 312 312 313 312 312 316 316 315 315 316 317 317 317 317 317 317 316 316 316 315
299 300 300 301 300 303 302 303 303 303 305 305 306 307 308 309 309 310 310 311 313 314 314 311 313 312 312 312 312 313 313 313 315 317 315 316 317 316 316 316 316 316 315 315 315
296 298 299 300 300 301 303 302 302 304 304 304 306 305 305 307 307 307 307 308 309 310 312 310 309 313 312 312 313 314 313 314 314 316 316 317 316 316 316 316 316 316 315 315 315